Home > Weather > Eau Claire > Past weeks

Flag for USA Past Weather in Eau Claire, Wisconsin, USA — Yesterday and Last 2 Weeks

Now
71 °F

Passing clouds.


Feels Like: 70 °F
Forecast: 64 / 89 °F
Wind: 3 mph from Southwest

Location: Eau Claire County Airport

Current Time: Jul 26, 2016 at 9:16:02 AM

Latest Report: Jul 26, 2016 at 7:56 AM


Visibility: 10 mi

Pressure: 30.04 "Hg

Humidity: 84%

Dew Point: 66 °F

Location of Eau ClaireLocation

Past Weather in Eau Claire — Graph

°F

Eau Claire Temperature Yesterday

Maximum temperature yesterday: 84 °F (at 4:56 PM)
Minimum temperature yesterday: 64 °F (at 5:56 AM)
Average temperature yesterday: 74 °F

High & Low Weather Summary for the Past Weeks

 TemperatureHumidityPressure
High93 °F (Jul 22, 3:56 PM)100% (Jul 16, 3:56 AM)30.20 "Hg (Jul 16, 3:56 AM)
Low54 °F (Jul 16, 4:56 AM)31% (Jul 22, 4:56 PM)29.59 "Hg (Jul 11, 11:56 PM)
Average74 °F75%29.92 "Hg
* Reported Jul 11 7:56 AM — Jul 26 7:56 AM, Eau Claire, Weather by CustomWeather, © 2016

Note: Actual official high and low records may vary slightly from our data, if they occured in-between our weather recording intervals... More about our weather records

Advertising

Eau Claire Weather History for the Previous 24 Hours

Scroll right to see more
 ConditionsComfort  
Time TempWeatherWind HumidityBarometerVisibility
7:56 AM
Tue, Jul 26
71 °FPassing clouds.3 mph84%30.04 "Hg10 mi
6:56 AM67 °FSunny.No wind93%30.04 "Hg10 mi
5:56 AM64 °FClear.No wind97%30.03 "Hg10 mi
4:56 AM65 °FClear.No wind97%30.03 "Hg10 mi
3:56 AM66 °FClear.No wind96%30.03 "Hg10 mi
2:56 AM67 °FClear.3 mph93%30.03 "Hg10 mi
1:56 AM67 °FClear.3 mph93%30.03 "Hg10 mi
12:56 AM67 °FClear.No wind93%30.03 "Hg10 mi
11:56 PM
Mon, Jul 25
69 °FClear.No wind87%30.02 "Hg10 mi
10:56 PM68 °FClear.No wind87%30.01 "Hg10 mi
9:56 PM72 °FClear.No wind84%30.01 "Hg10 mi
8:56 PM75 °FSunny.No wind71%29.99 "Hg10 mi
7:56 PM80 °FSunny.3 mph56%29.99 "Hg10 mi
6:56 PM82 °FSunny.6 mph49%29.98 "Hg10 mi
5:56 PM83 °FSunny.9 mph44%29.99 "Hg10 mi
4:56 PM84 °FPassing clouds.6 mph45%30.00 "Hg10 mi
3:56 PM82 °FPassing clouds.8 mph48%30.00 "Hg10 mi
2:56 PM81 °FPartly sunny.7 mph51%30.01 "Hg10 mi
1:56 PM83 °FScattered clouds.10 mph46%30.02 "Hg10 mi
12:56 PM82 °FSunny.9 mph49%30.02 "Hg10 mi
11:56 AM80 °FScattered clouds.10 mph52%30.03 "Hg10 mi
10:56 AM78 °FSunny.6 mph62%30.03 "Hg10 mi
9:56 AM76 °FSunny.6 mph64%30.03 "Hg10 mi
Weather by CustomWeather, © 2016

See weather overviewHow to use our weather pages